Tiempo cada hora Abakan

Hoy, 22 Junio, Martes

Tiempo Temperatura Precipitaciones Viento Presión Humedad
00:00 +11°C° 0 mm 1 mps 734 mmHg 77%
01:00 +11°C° 0 mm 1 mps 734 mmHg 77%
02:00 +11°C° 0 mm 1 mps 734 mmHg 77%
03:00 +10°C° 0 mm 1 mps 733 mmHg 77%
04:00 +11°C° 0 mm 1 mps 733 mmHg 75%
05:00 +12°C° 0 mm 1 mps 733 mmHg 72%
06:00 +13°C° 0 mm 2 mps 732 mmHg 70%
07:00 +14°C° 0 mm 2 mps 732 mmHg 66%
08:00 +16°C° 0 mm 2 mps 731 mmHg 63%
09:00 +17°C° 0 mm 2 mps 731 mmHg 59%
10:00 +19°C° 0 mm 2 mps 731 mmHg 57%
11:00 +20°C° 0 mm 2 mps 731 mmHg 54%
12:00 +22°C° 0 mm 1 mps 731 mmHg 51%
13:00 +23°C° 0 mm 2 mps 731 mmHg 51%
14:00 +23°C° 0 mm 2 mps 732 mmHg 51%
15:00 +24°C° 0 mm 3 mps 732 mmHg 51%
16:00 +21°C° 0.1 mm 3 mps 732 mmHg 59%
17:00 +20°C° 0.1 mm 3 mps 732 mmHg 66%
18:00 +19°C° 0 mm 3 mps 732 mmHg 73%
19:00 +18°C° 0.6 mm 3 mps 733 mmHg 79%
20:00 +17°C° 0.6 mm 2 mps 733 mmHg 85%
21:00 +16°C° 0.6 mm 2 mps 733 mmHg 91%
22:00 +16°C° 0.3 mm 2 mps 733 mmHg 91%
23:00 +15°C° 0.3 mm 2 mps 733 mmHg 91%

Mañana, 23 Junio, Miércoles

Tiempo Temperatura Precipitaciones Viento Presión Humedad
00:00 +15°C° 0.3 mm 2 mps 733 mmHg 91%
01:00 +15°C° 1.3 mm 2 mps 734 mmHg 92%
02:00 +14°C° 1.3 mm 2 mps 734 mmHg 92%
03:00 +12°C° 1.3 mm 3 mps 734 mmHg 93%
04:00 +12°C° 1.7 mm 3 mps 735 mmHg 93%
05:00 +12°C° 1.7 mm 3 mps 735 mmHg 93%
06:00 +12°C° 1.7 mm 3 mps 736 mmHg 94%
07:00 +12°C° 0.3 mm 3 mps 736 mmHg 92%
08:00 +12°C° 0.3 mm 4 mps 736 mmHg 90%
09:00 +12°C° 0.3 mm 4 mps 736 mmHg 88%
10:00 +13°C° 0.5 mm 4 mps 736 mmHg 84%
11:00 +14°C° 0.5 mm 4 mps 736 mmHg 79%
12:00 +15°C° 0.5 mm 4 mps 737 mmHg 75%
13:00 +15°C° 0.3 mm 4 mps 737 mmHg 73%
14:00 +15°C° 0.3 mm 4 mps 737 mmHg 72%
15:00 +17°C° 0.3 mm 4 mps 737 mmHg 70%
16:00 +15°C° 0.2 mm 4 mps 737 mmHg 71%
17:00 +15°C° 0.2 mm 4 mps 737 mmHg 71%
18:00 +15°C° 0.2 mm 4 mps 737 mmHg 72%
19:00 +14°C° 0 mm 3 mps 737 mmHg 77%
20:00 +13°C° 0 mm 2 mps 737 mmHg 81%
21:00 +12°C° 0 mm 2 mps 737 mmHg 85%
22:00 +11°C° 0 mm 1 mps 737 mmHg 87%
23:00 +11°C° 0 mm 1 mps 737 mmHg 88%

Pasado mañana, 24 Junio, Jueves

Tiempo Temperatura Precipitaciones Viento Presión Humedad
00:00 +10°C° 0 mm 1 mps 737 mmHg 90%
01:00 +10°C° 0 mm 1 mps 736 mmHg 91%
02:00 +10°C° 0 mm 1 mps 736 mmHg 91%
03:00 +9°C° 0 mm 1 mps 736 mmHg 92%
04:00 +10°C° 0 mm 1 mps 736 mmHg 90%
05:00 +11°C° 0 mm 1 mps 735 mmHg 88%
06:00 +12°C° 0 mm 1 mps 735 mmHg 86%
07:00 +13°C° 0 mm 2 mps 734 mmHg 80%
08:00 +14°C° 0 mm 3 mps 734 mmHg 75%
09:00 +16°C° 0 mm 3 mps 733 mmHg 69%
10:00 +18°C° 0 mm 3 mps 733 mmHg 65%
11:00 +19°C° 0 mm 3 mps 732 mmHg 61%
12:00 +20°C° 0 mm 2 mps 732 mmHg 57%
13:00 +20°C° 0 mm 2 mps 731 mmHg 55%
14:00 +21°C° 0 mm 2 mps 731 mmHg 53%
15:00 +23°C° 0 mm 2 mps 730 mmHg 52%
16:00 +21°C° 0 mm 2 mps 730 mmHg 56%
17:00 +21°C° 0 mm 2 mps 730 mmHg 59%
18:00 +21°C° 0 mm 2 mps 730 mmHg 63%
19:00 +19°C° 0.7 mm 3 mps 730 mmHg 72%
20:00 +15°C° 0.7 mm 4 mps 731 mmHg 82%
21:00 +13°C° 0.7 mm 5 mps 732 mmHg 91%
22:00 +13°C° 0.6 mm 5 mps 732 mmHg 92%
23:00 +12°C° 0.6 mm 4 mps 732 mmHg 93%

25 Junio, Viernes

Tiempo Temperatura Precipitaciones Viento Presión Humedad
00:00 +12°C° 0.6 mm 3 mps 732 mmHg 94%
01:00 +13°C° 0.3 mm 2 mps 732 mmHg 94%
02:00 +13°C° 0.3 mm 2 mps 732 mmHg 94%
03:00 +12°C° 0.3 mm 2 mps 732 mmHg 94%
04:00 +13°C° 0 mm 1 mps 732 mmHg 91%
05:00 +13°C° 0 mm 1 mps 732 mmHg 89%
06:00 +14°C° 0 mm 1 mps 732 mmHg 86%
07:00 +15°C° 0 mm 2 mps 732 mmHg 81%
08:00 +16°C° 0 mm 2 mps 732 mmHg 76%
09:00 +17°C° 0 mm 3 mps 732 mmHg 72%
10:00 +17°C° 0.1 mm 3 mps 732 mmHg 67%
11:00 +18°C° 0.1 mm 4 mps 733 mmHg 62%
12:00 +17°C° 0.1 mm 5 mps 733 mmHg 58%
13:00 +19°C° 0 mm 5 mps 733 mmHg 57%
14:00 +19°C° 0 mm 6 mps 733 mmHg 57%
15:00 +19°C° 0 mm 6 mps 733 mmHg 56%
16:00 +17°C° 0.1 mm 6 mps 734 mmHg 60%
17:00 +17°C° 0.1 mm 5 mps 734 mmHg 63%
18:00 +17°C° 0.1 mm 4 mps 734 mmHg 66%
19:00 +15°C° 0 mm 4 mps 734 mmHg 69%
20:00 +14°C° 0 mm 3 mps 735 mmHg 72%
21:00 +14°C° 0 mm 2 mps 735 mmHg 75%
22:00 +12°C° 0 mm 3 mps 736 mmHg 77%
23:00 +12°C° 0 mm 3 mps 736 mmHg 79%

26 Junio, Sábado

Tiempo Temperatura Precipitaciones Viento Presión Humedad
00:00 +11°C° 0 mm 4 mps 737 mmHg 81%
01:00 +11°C° 0 mm 4 mps 737 mmHg 82%
02:00 +10°C° 0 mm 3 mps 737 mmHg 83%
03:00 +10°C° 0 mm 3 mps 737 mmHg 83%
04:00 +11°C° 0 mm 3 mps 738 mmHg 81%
05:00 +11°C° 0 mm 3 mps 738 mmHg 79%
06:00 +12°C° 0 mm 3 mps 738 mmHg 77%
07:00 +13°C° 0 mm 3 mps 738 mmHg 71%
08:00 +15°C° 0 mm 4 mps 737 mmHg 65%
09:00 +17°C° 0 mm 4 mps 737 mmHg 60%
10:00 +18°C° 0 mm 3 mps 737 mmHg 56%
11:00 +18°C° 0 mm 3 mps 737 mmHg 53%
12:00 +19°C° 0 mm 3 mps 737 mmHg 50%
13:00 +20°C° 0 mm 2 mps 736 mmHg 47%
14:00 +20°C° 0 mm 2 mps 736 mmHg 45%
15:00 +22°C° 0 mm 1 mps 736 mmHg 42%
16:00 +20°C° 0 mm 2 mps 736 mmHg 49%
17:00 +20°C° 0 mm 2 mps 736 mmHg 56%
18:00 +19°C° 0 mm 3 mps 736 mmHg 63%
19:00 +18°C° 0.1 mm 2 mps 736 mmHg 67%
20:00 +16°C° 0.1 mm 2 mps 736 mmHg 71%
21:00 +15°C° 0.1 mm 1 mps 736 mmHg 75%
22:00 +14°C° 0.1 mm 1 mps 736 mmHg 76%
23:00 +14°C° 0.1 mm 1 mps 736 mmHg 77%

27 Junio, Domingo

Tiempo Temperatura Precipitaciones Viento Presión Humedad
00:00 +13°C° 0.1 mm 1 mps 736 mmHg 78%
01:00 +13°C° 0 mm 1 mps 737 mmHg 79%
02:00 +12°C° 0 mm 1 mps 737 mmHg 79%
03:00 +12°C° 0 mm 1 mps 737 mmHg 80%
04:00 +13°C° 0 mm 1 mps 737 mmHg 78%
05:00 +13°C° 0 mm 1 mps 737 mmHg 76%
06:00 +14°C° 0 mm 1 mps 738 mmHg 74%
07:00 +15°C° 0 mm 1 mps 738 mmHg 70%
08:00 +16°C° 0 mm 2 mps 738 mmHg 66%
09:00 +17°C° 0 mm 2 mps 738 mmHg 62%
10:00 +18°C° 0 mm 2 mps 738 mmHg 59%
11:00 +19°C° 0 mm 2 mps 737 mmHg 55%
12:00 +20°C° 0 mm 2 mps 737 mmHg 51%
13:00 +20°C° 0 mm 2 mps 737 mmHg 52%
14:00 +20°C° 0 mm 2 mps 737 mmHg 52%
15:00 +20°C° 0 mm 2 mps 737 mmHg 53%
16:00 +20°C° 0 mm 2 mps 737 mmHg 54%
17:00 +20°C° 0 mm 2 mps 737 mmHg 56%
18:00 +21°C° 0 mm 1 mps 737 mmHg 58%
19:00 +20°C° 0 mm 1 mps 737 mmHg 62%
20:00 +18°C° 0 mm 1 mps 737 mmHg 65%
21:00 +15°C° 0 mm 1 mps 737 mmHg 69%
22:00 +15°C° 0.1 mm 1 mps 737 mmHg 71%
23:00 +15°C° 0.1 mm 1 mps 737 mmHg 73%
Mostrar más

Necesitamos Su Consentimiento

Meteoprog y nuestros Proveedores de Servicios pueden almacenar y acceder a sus datos personales como cookies, identificadores de dispositivo u otras tecnologías similares de su dispositivo y procesar dichos datos para personalizar contenido y anuncios, además de ofrecer funciones de redes sociales y analizar el tráfico.

  • Almacenar y/o acceder a información en su dispositivo

    Se puede almacenar o acceder a cookies, identificadores de dispositivo u otra información de su dispositivo para los fines anteriormente indicados.

  • Anuncios y contenido personalizados, medición de anuncios y contenido, percepciones del público, y desarrollo de productos

    Los anuncios y el contenido pueden personalizarse en base a su perfil. Se pueden añadir más datos para personalizar mejor los anuncios y contenidos. Se puede medir el rendimiento de los anuncios y contenidos. Se puede obtener la percepción sobre el público que ha visto los anuncios y contenidos. Dichos datos pueden usarse para desarrollar o mejorar la experiencia del usuario, sistemas y software.

Al hacer clic en ‘Estoy De Acuerdo’ usted permitirá el uso de las cookies, identificadores de dispositivo, balizas web u otras tecnologías similares indicadas. Su configuración puede cambiarse desde el navegador de su dispositivo.

Para ciertos fines, los intereses legítimos pueden ser considerados por encima del consentimiento. Puede leer más sobre ello en nuestra Política de Privacidad y Cookies.